CYZYCZMT

Guest
Details From CYZY - Mackenzie
To CZMT - Masset
Flight Number -
Tags Generated
Created
Modified
Stats Distance 321 nm / 595 km
Max Altitude 0 ft / 0 m
Waypoints 2
Social Downloads 0
Likes 0
Share VATSIM

Download

Looking for another format? Having issues loading an existing format? Contact us
Advertisement - Login to hide

Notes

Generated

Route

CYZY CZMT

ID Type Via Altitude Latitude Longitude Leg Dist Tot Dist Heading (true) Name
O CYZY APT - 0 ft / 0 m 55.31111˚ -123.13084˚ - 0 nm - -
O CZMT APT - 0 ft / 0 m 54.03042˚ -132.12440˚ 321 nm 321 nm 260° / 253° -

Altitude Profile

Advertisement - Login to hide

Weather


0- 5 10 15 20 25 30 35+ Temperature / ° C

Clouds and Precipitation
Forecast for 2018-05-22 18:00 UTC. Updated 3 hours ago

Ground ~20,000 ft ~40,000 ft Winds

CYZY

Details ICAO CYZY (YZY)
Name MACKENZIE
Region Canada
Timezone America/Vancouver (UTC-7.0)
Stats Elevation 2,264 ft / 690 m (AMSL)
Location 55.304305° -123.132085°
Runways 1
Magnetic Variation 17.746° E

METAR

CYZY 221900Z AUTO 18009KT 070V240 9SM CLR 21/05 A2991 RMK SLP137 DENSITY ALT 3400FT

Decode

TAF

TAF CYZY 221838Z 2219/2307 VRB03KT P6SM FEW240 BECMG 2221/2223 18008KT FM230000 25010KT P6SM BKN120 BECMG 2303/2305 32008KT RMK FCST BASED ON AUTO OBS. NXT FCST BY 230100Z

Decode

Departure Runways

ID Width Length Bearing (true) Bearing (mag) Surface Threshold Offset Overrun Length
16 100 ft / 30 m 4,994 ft / 1,522 m 185.95° 168.20° Asphalt 0 ft / 0 m 0 ft / 0 m
34 100 ft / 30 m 4,994 ft / 1,522 m 5.95° 348.20° Asphalt 0 ft / 0 m 0 ft / 0 m

CZMT

Details ICAO CZMT (ZMT)
Name MASSET
Region Canada
Timezone America/Vancouver (UTC-7.0)
Stats Elevation 25 ft / 8 m (AMSL)
Location 54.024807° -132.117645°
Runways 1
Magnetic Variation 18.087° E

METAR

CZMT 221900Z 16006KT 10SM -SHRA SCT030TCU OVC060 11/09 A2991 RMK TCU3SC5 SLP129

Decode

TAF

TAF CZMT 221838Z 2219/2224 13008KT P6SM SCT030 OVC060 TEMPO 2219/2224 P6SM -SHRA BKN030 OVC060 RMK NXT FCST WILL BE ISSUED AT 231415Z

Decode

Destination Runways

ID Width Length Bearing (true) Bearing (mag) Surface Threshold Offset Overrun Length
13 98 ft / 30 m 5,017 ft / 1,529 m 144.74° 126.65° Asphalt 0 ft / 0 m 0 ft / 0 m
31 98 ft / 30 m 5,017 ft / 1,529 m 324.75° 306.66° Asphalt 0 ft / 0 m 0 ft / 0 m

Popular Alternatives